Regional Weather Roundup
Issued by NWS

Home | Current Version | Previous Version | Text Only | Print | Product List | Glossary Off
Versions: 1 2 3 4 5 6 7 8 9 10 11 12 13 14 15 16 17 18 19 20 21 22 23 24 25 26 27 28 29 30 31 32 33 34 35 36 37 38 39 40 41 42 43 44 45 46 47 48 49 50

000
ASUS43 KIND 291859
RWRIN

WEATHER ROUNDUP FOR INDIANA
NATIONAL WEATHER SERVICE INDIANAPOLIS IN
300 PM EDT WED JUL 29 2015

NOTE: "FAIR" INDICATES FEW OR NO CLOUDS BELOW 12,000 FEET WITH NO
SIGNIFICANT WEATHER AND/OR OBSTRUCTIONS TO VISIBILITY.

* - STATION DOES NOT REPORT WEATHER SUCH AS PRECIPITATION OR FOG.

+ - STATION NOT QUALITY CONTROLLED BY THE NATIONAL WEATHER SERVICE.
    USE DATA WITH CAUTION...ESPECIALLY DEWPOINT AND RELATIVE
    HUMIDITY OBSERVATIONS.

INZ001>003-010>013-019-020-292000-
NORTHWEST INDIANA

CITY           SKY/WX    TMP DP  RH WIND       PRES   REMARKS
GARY /AIRPORT/ MOSUNNY  N/A N/A N/A VRB3      29.98F
MONTICELLO +   PTSUNNY   84  76  77 NW6       29.98R
RENSSELAER +   PTSUNNY   84  77  79 W10G18    29.99S

$$

LMZ046-743>745-292000-
SOUTHERN LAKE MICHIGAN

STATION/POSITION TIME  TEMP    WIND        PRES    WAVE
                       AIR SEA DIR/SP/G            HT
                 (UTC) (F)     (DEG/KT/KT) (MB)    (FT)
BURNS HARBOR     1800   76      20/  6/  7 1016.3R
MICHIGAN CITY    1800   77     320/  6/  7   N/A
5NW MICH CITY    1800   76 75  350/  6/  6   N/A     1

$$

INZ004-005-014>016-021>024-292000-
NORTH CENTRAL INDIANA

CITY           SKY/WX    TMP DP  RH WIND       PRES   REMARKS
GOSHEN         CLOUDY    84  74  71 NW10      29.96S
SOUTH BEND     MOSUNNY   84  69  60 NW9       29.98F

$$

INZ006>009-017-018-025>027-292000-
NORTHEAST INDIANA

CITY           SKY/WX    TMP DP  RH WIND       PRES   REMARKS
ANGOLA *+      MOSUNNY   88  82  84 NW9       29.94F HX 108
FORT WAYNE     CLOUDY    86  75  69 W13       29.95S HX  95

$$

INZ028-029-035-036-043>045-051>053-292000-
WEST CENTRAL INDIANA

CITY           SKY/WX    TMP DP  RH WIND       PRES   REMARKS
CRAWFORDSVL +  CLOUDY    81  73  78 W8          N/A
GREENCASTLE +  CLOUDY    84  70  61 NW5       30.01S
LAFAYETTE      PTSUNNY   84  77  79 W9        29.98S
TERRE HAUTE    CLOUDY    87  77  72 NW8       29.99F HX  99

$$

INZ030>032-037>040-046>048-054>057-064-065-292000-
CENTRAL INDIANA

CITY           SKY/WX    TMP DP  RH WIND       PRES   REMARKS
ANDERSON       MOSUNNY   90  68  48 NW12G17   29.99S
GREENWOOD *+   PTSUNNY   88  70  55 W10       29.99S
INDIANAPOLIS   PTSUNNY   89  74  60 W14       29.98S HX  98
-EAGLE CREEK   PTSUNNY   87  73  62 NW12      29.99R
KOKOMO *+      CLOUDY    88  73  62 NW12      29.98R HX  96
MT COMFORT *+  MOSUNNY   90  73  58 NW10      29.99S HX  98
SHELBYVILLE    PTSUNNY   91  75  59 W9        29.97S HX 101

$$

INZ033-034-041-042-049-050-058-059-292000-
EAST CENTRAL INDIANA

CITY           SKY/WX    TMP DP  RH WIND       PRES   REMARKS
MUNCIE         MOSUNNY   87  74  64 NW9       29.97S HX  95

$$

INZ060-061-067>069-081>083-085>088-292000-
SOUTHWEST INDIANA

CITY           SKY/WX    TMP DP  RH WIND       PRES   REMARKS
EVANSVILLE     MOSUNNY   93  77  59 NW3       29.98S HX 107
HUNTINGBURG *+ MOSUNNY   91  77  62 W7        29.98F HX 105

$$

INZ062-063-066-070>080-084-089>092-292000-
SOUTH CENTRAL AND SOUTHEAST INDIANA

CITY           SKY/WX    TMP DP  RH WIND       PRES   REMARKS
BLOOMINGTON    PTSUNNY   90  77  65 VRB3      29.98F HX 103
MADISON *+     SUNNY     91  68  46 W6        29.99F HX  95
SEYMOUR +      SUNNY     95  75  52 W3        29.96F HX 107

$$




USA.gov is the U.S. government's official web portal to all federal, state and local government web resources and services.